Flag for Brazil Weather past 2 weeks in Campo Grande, Mato Grosso Do Sul, Brazil

Now
68 °F

Passing clouds.


Feels Like: 68 °F
Forecast: 63 / 80 °F
Wind: 8 mph from East

Location: Campo Grande Aeroporto

Current Time: Jul 1, 2015 at 9:23:07 PM

Latest Report: Jul 1, 2015 at 9:00 PM


Visibility: N/A

Pressure: 30.07 "Hg

Humidity: 94%

Dew point: 66 °F

Location of Campo GrandeLocation

Historic Weather in Campo Grande — Graph

°F

Campo Grande temperature yesterday

Maximum temperature yesterday: 81 °F (at 12:00 PM)
Minimum temperature yesterday: 64 °F (at 12:00 AM)
Average temperature yesterday: 70 °F

Past Weeks' High & Low Weather Summary

 TemperatureHumidityPressure
High86 °F (Jun 17, 1:00 PM)100% (Jun 18, 8:00 PM)30.30 "Hg (Jun 18, 8:00 PM)
Low54 °F (Jun 19, 4:00 AM)39% (Jun 22, 2:00 PM)28.23 "Hg (Jun 23, 4:00 AM)
Average69 °F70%30.13 "Hg
* Reported Jun 16 8:00 PM — Jul 1 8:00 PM, Campo Grande, Weather by CustomWeather, © 2015

Note: Actual official high and low records may vary slightly from our data, if they occured in-between our weather recording intervals... More about our weather records

Advertising

Campo Grande weather history for previous 24 hours

 ConditionsComfort  
Time TempWeatherWind HumidityBarometerVisibility
8:00 PM
Wed, Jul 1
70 °FPassing clouds.7 mph88%30.04 "HgN/A
7:00 PM70 °FPassing clouds.2 mph88%30.04 "HgN/A
6:00 PM70 °FPassing clouds.3 mph88%30.04 "HgN/A
5:00 PM73 °FPassing clouds.2 mph78%30.01 "HgN/A
4:00 PM75 °FScattered clouds.3 mph69%30.01 "HgN/A
3:00 PM77 °FScattered clouds.2 mph69%30.01 "HgN/A
2:00 PM75 °FScattered clouds.2 mph69%30.04 "HgN/A
1:00 PM75 °FBroken clouds.2 mph69%30.07 "HgN/A
12:00 PM75 °FBroken clouds.3 mph69%30.09 "HgN/A
11:00 AM73 °FPartly sunny.2 mph74%30.09 "HgN/A
10:00 AM72 °FPartly sunny.3 mph78%30.12 "HgN/A
9:00 AM68 °FBroken clouds.5 mph88%30.12 "HgN/A
8:00 AM66 °FPartly sunny.2 mph94%30.12 "HgN/A
7:00 AM66 °FPartly sunny.No wind94%30.09 "HgN/A
6:00 AM66 °FPartly sunny.3 mph94%30.07 "Hg5 mi
5:00 AM64 °FPassing clouds.2 mph100%30.04 "HgN/A
4:00 AM64 °FPassing clouds.3 mph100%30.04 "HgN/A
3:00 AM66 °FPassing clouds.5 mph94%30.04 "HgN/A
2:00 AM66 °FPassing clouds.3 mph94%30.04 "HgN/A
1:00 AM66 °FPassing clouds.6 mph94%30.07 "HgN/A
12:00 AM66 °FPassing clouds.6 mph94%30.07 "HgN/A
11:00 PM
Tue, Jun 30
64 °FPassing clouds.No wind94%30.07 "HgN/A
10:03 PM64 °FPassing clouds.No wind94%30.07 "HgN/A
10:00 PM64 °FPassing clouds.1 mph94%30.07 "HgN/A
9:00 PM64 °FPassing clouds.3 mph94%30.07 "HgN/A
Weather by CustomWeather, © 2015

See weather overviewHow to use our weather pages